Time,TemperatureF,DewpointF,PressureIn,WindDirection,WindDirectionDegrees,WindSpeedMPH,WindSpeedGustMPH,Humidity,HourlyPrecipIn,Conditions,Clouds,dailyrainin,SoftwareType,DateUTC
2013-04-13 00:14:00,30.2,28.2,29.80,WNW,292,2.2,-999.0,92,-99.99,,,0.00,Acu-Link.com,2013-04-13 04:14:00,
2013-04-13 00:30:00,30.2,28.2,29.79,SW,225,1.7,-999.0,92,-99.99,,,0.00,Acu-Link.com,2013-04-13 04:30:00,
2013-04-13 00:45:00,30.2,28.2,29.80,North,0,1.1,-999.0,92,-99.99,,,0.00,Acu-Link.com,2013-04-13 04:45:00,
2013-04-13 01:00:00,30.2,28.2,29.80,WNW,292,0.0,-999.0,92,-99.99,,,0.00,Acu-Link.com,2013-04-13 05:00:00,
2013-04-13 01:15:00,30.4,28.4,29.79,NNW,337,2.7,-999.0,92,-99.99,,,0.00,Acu-Link.com,2013-04-13 05:15:00,
2013-04-13 01:31:00,30.4,28.4,29.78,WNW,292,1.1,-999.0,92,-99.99,,,0.00,Acu-Link.com,2013-04-13 05:31:00,
2013-04-13 02:01:00,30.6,28.6,29.80,WSW,247,1.7,-999.0,92,-99.99,,,0.00,Acu-Link.com,2013-04-13 06:01:00,
2013-04-13 02:17:00,30.4,28.4,29.74,NNW,337,3.7,-999.0,92,-99.99,,,0.00,Acu-Link.com,2013-04-13 06:17:00,
2013-04-13 02:32:00,30.4,28.4,29.78,SE,135,2.2,-999.0,92,-99.99,,,0.00,Acu-Link.com,2013-04-13 06:32:00,
2013-04-13 03:02:00,30.4,28.6,29.76,NE,45,0.0,-999.0,93,-99.99,,,0.00,Acu-Link.com,2013-04-13 07:02:00,
2013-04-13 03:17:00,30.4,28.6,29.75,ESE,112,1.7,-999.0,93,-99.99,,,0.00,Acu-Link.com,2013-04-13 07:17:00,
2013-04-13 03:33:00,30.4,28.6,29.75,SSE,157,1.7,-999.0,93,-99.99,,,0.00,Acu-Link.com,2013-04-13 07:33:00,
2013-04-13 03:48:00,30.4,28.6,29.76,WSW,247,0.0,-999.0,93,-99.99,,,0.00,Acu-Link.com,2013-04-13 07:48:00,
2013-04-13 04:04:00,30.4,28.6,29.75,South,180,0.0,-999.0,93,-99.99,,,0.00,Acu-Link.com,2013-04-13 08:04:00,
2013-04-13 04:35:00,30.4,28.6,29.75,South,180,0.0,-999.0,93,-99.99,,,0.00,Acu-Link.com,2013-04-13 08:35:00,
2013-04-13 04:50:00,30.4,28.6,29.74,SW,225,0.0,-999.0,93,-99.99,,,0.00,Acu-Link.com,2013-04-13 08:50:00,
2013-04-13 05:05:00,30.4,28.6,29.74,South,180,0.0,-999.0,93,-99.99,,,0.00,Acu-Link.com,2013-04-13 09:05:00,
2013-04-13 05:20:00,30.4,28.6,29.74,WSW,247,0.0,-999.0,93,-99.99,,,0.00,Acu-Link.com,2013-04-13 09:20:00,
2013-04-13 05:35:00,30.0,28.2,29.74,ESE,112,0.0,-999.0,93,-99.99,,,0.00,Acu-Link.com,2013-04-13 09:35:00,
2013-04-13 06:06:00,30.0,28.2,29.76,SE,135,0.0,-999.0,93,-99.99,,,0.00,Acu-Link.com,2013-04-13 10:06:00,
2013-04-13 06:22:00,30.0,28.2,29.76,SSE,157,0.0,-999.0,93,-99.99,,,0.00,Acu-Link.com,2013-04-13 10:22:00,
2013-04-13 06:37:00,30.4,28.6,29.76,ESE,112,0.0,-999.0,93,-99.99,,,0.00,Acu-Link.com,2013-04-13 10:37:00,
2013-04-13 06:52:00,30.7,29.2,29.76,South,180,0.0,-999.0,94,-99.99,,,0.00,Acu-Link.com,2013-04-13 10:52:00,
2013-04-13 07:07:00,31.3,29.8,29.77,ESE,112,0.0,-999.0,94,-99.99,,,0.00,Acu-Link.com,2013-04-13 11:07:00,
2013-04-13 07:22:00,32.2,30.4,29.76,NW,315,0.0,-999.0,93,-99.99,,,0.00,Acu-Link.com,2013-04-13 11:22:00,
2013-04-13 08:08:00,34.0,30.8,29.78,SSE,157,1.1,-999.0,88,-99.99,,,0.00,Acu-Link.com,2013-04-13 12:08:00,
2013-04-13 08:24:00,34.2,31.0,29.78,SSE,157,2.2,-999.0,88,-99.99,,,0.00,Acu-Link.com,2013-04-13 12:24:00,
2013-04-13 08:39:00,34.2,31.0,29.77,ESE,112,2.2,-999.0,88,-99.99,,,0.00,Acu-Link.com,2013-04-13 12:39:00,
2013-04-13 08:54:00,35.1,31.9,29.77,ESE,112,1.1,-999.0,88,-99.99,,,0.00,Acu-Link.com,2013-04-13 12:54:00,
2013-04-13 09:09:00,36.0,32.2,29.76,West,270,0.0,-999.0,86,-99.99,,,0.00,Acu-Link.com,2013-04-13 13:09:00,
2013-04-13 09:40:00,37.2,32.5,29.75,SW,225,0.0,-999.0,83,-99.99,,,0.00,Acu-Link.com,2013-04-13 13:40:00,
2013-04-13 09:55:00,37.9,33.2,29.76,SSW,202,1.1,-999.0,83,-99.99,,,0.00,Acu-Link.com,2013-04-13 13:55:00,
2013-04-13 10:10:00,38.3,33.3,29.75,North,0,2.2,-999.0,82,-99.99,,,0.00,Acu-Link.com,2013-04-13 14:10:00,
2013-04-13 10:26:00,41.0,35.9,29.75,NNE,22,1.1,-999.0,82,-99.99,,,0.00,Acu-Link.com,2013-04-13 14:26:00,
2013-04-13 10:41:00,41.0,35.0,29.75,NNE,22,1.1,-999.0,79,-99.99,,,0.00,Acu-Link.com,2013-04-13 14:41:00,
2013-04-13 11:11:00,39.7,33.7,29.75,ESE,112,2.2,-999.0,79,-99.99,,,0.00,Acu-Link.com,2013-04-13 15:11:00,
2013-04-13 11:42:00,44.4,35.6,29.75,East,90,2.2,-999.0,71,-99.99,,,0.03,Acu-Link.com,2013-04-13 15:42:00,
2013-04-13 11:57:00,43.2,35.1,29.75,NE,45,2.2,-999.0,73,-99.99,,,0.06,Acu-Link.com,2013-04-13 15:57:00,
2013-04-13 12:27:00,42.6,34.2,29.75,NE,45,3.2,-999.0,72,-99.99,,,0.12,Acu-Link.com,2013-04-13 16:27:00,
2013-04-13 12:58:00,44.2,35.4,29.75,ESE,112,1.1,-999.0,71,-99.99,,,0.16,Acu-Link.com,2013-04-13 16:58:00,
2013-04-13 13:13:00,44.6,35.4,29.74,East,90,0.0,-999.0,70,-99.99,,,0.20,Acu-Link.com,2013-04-13 17:13:00,
2013-04-13 13:28:00,46.2,36.6,29.73,West,270,1.7,-999.0,69,-99.99,,,0.22,Acu-Link.com,2013-04-13 17:28:00,
2013-04-13 13:44:00,45.9,34.8,29.73,SE,135,4.7,-999.0,65,-99.99,,,0.23,Acu-Link.com,2013-04-13 17:44:00,
2013-04-13 13:59:00,48.2,35.8,29.72,SSE,157,3.7,-999.0,62,-99.99,,,0.27,Acu-Link.com,2013-04-13 17:59:00,
2013-04-13 14:14:00,47.3,34.9,29.73,SW,225,1.1,-999.0,62,-99.99,,,0.29,Acu-Link.com,2013-04-13 18:14:00,
2013-04-13 14:29:00,46.6,34.7,29.73,North,0,1.1,-999.0,63,-99.99,,,0.30,Acu-Link.com,2013-04-13 18:29:00,
2013-04-13 14:45:00,49.3,34.7,29.72,WSW,247,2.2,-999.0,57,-99.99,,,0.31,Acu-Link.com,2013-04-13 18:45:00,
2013-04-13 15:00:00,48.9,33.9,29.72,NE,45,1.7,-999.0,56,-99.99,,,0.32,Acu-Link.com,2013-04-13 19:00:00,
2013-04-13 15:15:00,50.7,33.7,29.71,West,270,2.2,-999.0,52,-99.99,,,0.32,Acu-Link.com,2013-04-13 19:15:00,
2013-04-13 15:30:00,50.5,32.1,29.70,NNE,22,1.7,-999.0,49,-99.99,,,0.32,Acu-Link.com,2013-04-13 19:30:00,
2013-04-13 15:46:00,52.0,33.9,29.71,South,180,0.0,-999.0,50,-99.99,,,0.32,Acu-Link.com,2013-04-13 19:46:00,
2013-04-13 16:01:00,49.8,32.4,29.71,North,0,2.2,-999.0,51,-99.99,,,0.32,Acu-Link.com,2013-04-13 20:01:00,
2013-04-13 16:16:00,49.5,33.1,29.71,ESE,112,1.1,-999.0,53,-99.99,,,0.32,Acu-Link.com,2013-04-13 20:16:00,
2013-04-13 16:31:00,48.6,32.7,29.72,ESE,112,0.0,-999.0,54,-99.99,,,0.32,Acu-Link.com,2013-04-13 20:31:00,
2013-04-13 16:46:00,48.2,33.2,29.73,SW,225,3.2,-999.0,56,-99.99,,,0.32,Acu-Link.com,2013-04-13 20:46:00,
2013-04-13 17:02:00,47.3,32.4,29.74,WNW,292,1.1,-999.0,56,-99.99,,,0.32,Acu-Link.com,2013-04-13 21:02:00,
2013-04-13 17:17:00,46.6,33.0,29.75,North,0,1.7,-999.0,59,-99.99,,,0.32,Acu-Link.com,2013-04-13 21:17:00,
2013-04-13 17:32:00,46.2,33.1,29.75,WNW,292,2.7,-999.0,60,-99.99,,,0.32,Acu-Link.com,2013-04-13 21:32:00,
2013-04-13 17:47:00,45.7,33.4,29.77,SSW,202,2.7,-999.0,62,-99.99,,,0.32,Acu-Link.com,2013-04-13 21:47:00,
2013-04-13 18:03:00,45.5,33.6,29.77,North,0,0.0,-999.0,63,-99.99,,,0.32,Acu-Link.com,2013-04-13 22:03:00,
2013-04-13 18:18:00,44.8,33.8,29.79,SSW,202,1.1,-999.0,65,-99.99,,,0.32,Acu-Link.com,2013-04-13 22:18:00,
2013-04-13 18:33:00,44.6,34.0,29.78,ESE,112,1.7,-999.0,66,-99.99,,,0.32,Acu-Link.com,2013-04-13 22:33:00,
2013-04-13 18:48:00,43.9,34.0,29.78,NNW,337,0.0,-999.0,68,-99.99,,,0.32,Acu-Link.com,2013-04-13 22:48:00,
2013-04-13 19:03:00,43.3,33.8,29.78,SSW,202,0.0,-999.0,69,-99.99,,,0.32,Acu-Link.com,2013-04-13 23:03:00,
2013-04-13 19:18:00,42.8,34.1,29.79,SE,135,0.0,-999.0,71,-99.99,,,0.32,Acu-Link.com,2013-04-13 23:18:00,
2013-04-13 19:34:00,41.9,33.9,29.80,West,270,0.0,-999.0,73,-99.99,,,0.32,Acu-Link.com,2013-04-13 23:34:00,
2013-04-13 19:49:00,41.5,33.8,29.81,NNW,337,0.0,-999.0,74,-99.99,,,0.32,Acu-Link.com,2013-04-13 23:49:00,
2013-04-13 20:04:00,41.5,34.5,29.81,North,0,1.7,-999.0,76,-99.99,,,0.32,Acu-Link.com,2013-04-14 00:04:00,
2013-04-13 20:19:00,41.2,34.5,29.82,WNW,292,0.0,-999.0,77,-99.99,,,0.32,Acu-Link.com,2013-04-14 00:19:00,
2013-04-13 20:34:00,40.6,34.3,29.82,SSE,157,0.0,-999.0,78,-99.99,,,0.32,Acu-Link.com,2013-04-14 00:34:00,
2013-04-13 20:50:00,40.3,34.9,29.82,NNW,337,0.0,-999.0,81,-99.99,,,0.32,Acu-Link.com,2013-04-14 00:50:00,
2013-04-13 21:05:00,39.7,34.7,29.82,South,180,0.0,-999.0,82,-99.99,,,0.32,Acu-Link.com,2013-04-14 01:05:00,
2013-04-13 21:20:00,39.2,35.4,29.83,SSW,202,0.0,-999.0,86,-99.99,,,0.32,Acu-Link.com,2013-04-14 01:20:00,
2013-04-13 21:36:00,39.0,35.2,29.83,SSW,202,0.0,-999.0,86,-99.99,,,0.32,Acu-Link.com,2013-04-14 01:36:00,
2013-04-13 21:51:00,38.8,35.6,29.84,NE,45,0.0,-999.0,88,-99.99,,,0.32,Acu-Link.com,2013-04-14 01:51:00,
2013-04-13 22:21:00,38.3,35.6,29.84,SSE,157,1.1,-999.0,90,-99.99,,,0.32,Acu-Link.com,2013-04-14 02:21:00,
2013-04-13 22:37:00,38.3,35.9,29.85,North,0,0.0,-999.0,91,-99.99,,,0.32,Acu-Link.com,2013-04-14 02:37:00,
2013-04-13 22:52:00,37.9,35.5,29.84,NNE,22,1.1,-999.0,91,-99.99,,,0.32,Acu-Link.com,2013-04-14 02:52:00,
2013-04-13 23:07:00,37.6,35.2,29.84,South,180,0.0,-999.0,91,-99.99,,,0.32,Acu-Link.com,2013-04-14 03:07:00,
2013-04-13 23:22:00,37.2,34.8,29.85,SSE,157,0.0,-999.0,91,-99.99,,,0.32,Acu-Link.com,2013-04-14 03:22:00,
2013-04-13 23:37:00,36.9,34.5,29.84,NW,315,0.0,-999.0,91,-99.99,,,0.32,Acu-Link.com,2013-04-14 03:37:00,
2013-04-13 23:53:00,36.5,34.4,29.84,WSW,247,1.7,-999.0,92,-99.99,,,0.32,Acu-Link.com,2013-04-14 03:53:00,